This demonstration page uses our WeatherBlox Daily Observations layout. Learn more.

Left ArrowRight Arrow

30.21309, -93.2044

Hourly Observations for April 6, 2022

Temp ( °F °C ) Dew Point ( °F °C ) Humidity (%) Winds ( mph kmh ) Pressure ( in mb ) Visibility ( mi km ) Precip ( " mm )
12:15 am 00:15 Cloudy 73 22.6 71 21.6 94 94 S 10 17 29.66 1004 7 11 0.00 0.00
12:35 am 00:35 Cloudy with Mist and Fog 73 22.6 71 21.6 94 94 S 12 19 29.66 1004 5 8 0.00 0.00
12:55 am 00:55 Cloudy with Mist and Fog 73 22.5 71 21.6 95 95 S 7 11 29.66 1004 3 5 0.00 0.00
1:15 am 01:15 Cloudy with Mist and Fog 73 22.5 71 21.7 95 95 S 8 13 29.65 1004 3 5 0.00 0.00
1:35 am 01:35 Cloudy with Mist and Fog 73 22.5 71 21.7 95 95 S 9 15 29.64 1004 3 5 0.00 0.00
1:55 am 01:55 Cloudy with Mist and Fog 73 22.6 71 21.8 95 95 S 9 15 29.64 1004 5 8 0.00 0.00
2:15 am 02:15 Cloudy with Mist and Fog 73 22.7 71 21.8 95 95 SSW 12 19 29.64 1004 5 8 0.00 0.00
2:35 am 02:35 Cloudy with Mist and Fog 73 22.6 71 21.7 95 95 SSW 10 17 29.63 1003 7 11 0.00 0.00
2:55 am 02:55 Cloudy with Mist and Fog 73 22.5 71 21.7 95 95 SSW 10 17 29.63 1003 3 4 0.00 0.00
3:15 am 03:15 Cloudy with Mist and Fog 73 22.5 71 21.7 95 95 SSW 8 13 29.63 1003 2 2 0.00 0.00
3:35 am 03:35 Cloudy with Mist and Fog 73 22.6 71 21.8 95 95 SSW 7 11 29.62 1003 2 3 0.00 0.00
3:55 am 03:55 Cloudy with Mist and Fog 73 22.6 71 21.8 95 95 SSW 8 13 29.62 1003 5 8 0.00 0.00
4:15 am 04:15 Cloudy with Mist and Fog 73 22.7 71 21.9 95 95 SSW 6 9 29.62 1003 7 11 0.00 0.00
4:35 am 04:35 Cloudy 73 22.8 71 21.9 95 95 SSW 8 13 29.62 1003 7 11 0.00 0.00
4:55 am 04:55 Cloudy 73 22.8 71 21.9 95 95 SSW 9 15 29.63 1003 7 11 0.00 0.00
5:15 am 05:15 Cloudy with Mist and Fog 73 22.8 71 21.9 95 95 SSW 9 15 29.63 1003 7 11 0.00 0.00
5:35 am 05:35 Cloudy with Mist and Fog 73 22.8 71 21.9 95 95 SSW 8 13 29.64 1004 4 6 0.00 0.00
6:00 am 06:00 Mostly Clear 73 23 72 22 94 94 SSW 8 13 29.64 1004 7 11 0.00 0.00
6:45 am 06:45 Cloudy with Mist and Fog 73 23 72 22 94 94 SSW 8 13 29.65 1004 7 11 0.00 0.00
7:45 am 07:45 Cloudy with Mist and Fog 73 23 72 22 94 94 SSW 14 22 29.65 1004 5 8 0.00 0.00
8:50 am 08:50 Cloudy with Mist and Fog 75 24 72 22 89 89 SSW 16 26 29.68 1005 7 11 0.00 0.00
9:50 am 09:50 Cloudy with Mist and Fog 75 24 72 22 89 89 SSW 16 26 29.70 1006 7 11 0.00 0.00
10:45 am 10:45 Cloudy 77 25 70 21 79 79 WSW 17 28 29.73 1007 7 11 0.00 0.00
11:45 am 11:45 Mostly Cloudy 79 26 68 20 70 70 W 12 19 29.73 1007 10 16 0.00 0.00
12:45 pm 12:45 Mostly Cloudy 81 27 68 20 66 66 W 10 17 29.73 1007 10 16 0.00 0.00
1:45 pm 13:45 Mostly Cloudy 82 28 70 21 66 66 W 8 13 29.71 1006 10 16 0.00 0.00
2:55 pm 14:55 Mostly Cloudy 86 30 70 21 59 59 NNW 5 7 29.69 1005 10 16 0.00 0.00
3:52 pm 15:52 Partly Cloudy 88 31 68 20 52 52 W 10 17 29.68 1005 10 16 0.00 0.00
4:50 pm 16:50 Mostly Cloudy 88 31 66 19 49 49 NW 9 15 29.67 1005 10 16 0.00 0.00
5:47 pm 17:47 Mostly Cloudy 81 27 82 28 100 100 NNW 21 33 29.70 1006 10 16 0.00 0.00
6:47 pm 18:47 Mostly Cloudy 75 24 61 16 61 61 N 20 31 29.75 1007 10 16 0.00 0.00
7:47 pm 19:47 Mostly Cloudy 72 22 55 13 57 57 N 16 26 29.80 1009 10 16 0.00 0.00
8:50 pm 20:50 Mostly Cloudy 70 21 54 12 57 57 N 10 17 29.86 1011 10 16 0.00 0.00
10:15 pm 22:15 Mostly Cloudy 67 19.3 47 8.1 48 48 N 8 13 29.92 1013 10 16 0.00 0.00
10:35 pm 22:35 Partly Cloudy 66 18.7 47 8.2 51 51 N 10 17 29.94 1014 10 16 0.00 0.00
10:55 pm 22:55 Clear 64 18 47 8.3 53 53 N 7 11 29.95 1014 10 16 0.00 0.00
11:15 pm 23:15 Clear 64 17.7 47 8.5 55 55 N 7 11 29.95 1014 10 16 0.00 0.00
11:35 pm 23:35 Clear 63 17 48 8.8 59 59 N 7 11 29.96 1015 10 16 0.00 0.00
11:55 pm 23:55 Clear 62 16.6 48 9 61 61 N 9 15 29.96 1015 10 16 0.00 0.00

Powered by AerisWeather